Weather History for Shelbyville, IN

Change the Weather History Date:

Wednesday, January 1, 2014

  Actual Average Record
Temperature  
Mean Temperature 34 °F 29 °F  
Max Temperature 43 °F 36 °F 61 °F (2011)
Min Temperature 24 °F 21 °F -4 °F (1999)
Degree Days  
Heating Degree Days 31 36  
Month to date heating degree days 31 36  
Since 1 July heating degree days 2110 2140  
Cooling Degree Days 0 0  
Month to date cooling degree days 0 0  
Year to date cooling degree days 0 0  
Moisture  
Dew Point 25 °F    
Average Humidity 70    
Maximum Humidity 82    
Minimum Humidity 57    
Precipitation  
Precipitation 0.00 in 0.10 in 0.53 in (2003)
Month to date precipitation 0.00 0.10  
Year to date precipitation 0.00 0.10  
Sea Level Pressure  
Sea Level Pressure 30.16 in    
Wind  
Wind Speed 6 mph (SE)    
Max Wind Speed 14 mph    
Max Gust Speed 18 mph    
Visibility 10 miles    
Events      
T = Trace of Precipitation, MM = Missing Value Source: NWS Daily Summary

Daily Weather History Graph

Daily Weather History Graph

Search for Another Location

Airport:

Trip Planner

Search our weather history database for the weather conditions in past years. The results will help you decide how hot, cold, wet, or windy it might be!

Date:

Astronomy

Jan. 01, 2014 Rise Set
Actual Time 8:03 AM EST 5:30 PM EST
Civil Twilight 7:33 AM EST 6:00 PM EST
Nautical Twilight 6:59 AM EST 6:33 PM EST
Astronomical Twilight 6:27 AM EST 7:06 PM EST
Moon 7:53 AM EST (1/1) 6:13 PM EST (1/1)
Length of Visible Light 10h 26m
Length of Day
9h 26m
New Moon, 0% of the Moon is Illuminated
Jan 1
New Moon
Jan 7
First Quarter
Jan 15
Full
Jan 24
Last Quarter
Jan 30
New

Hourly Weather History & Observations

Time (EST) Temp. Windchill Dew Point Humidity Pressure Visibility Wind Dir Wind Speed Gust Speed Precip Events Conditions
12:53 AM 26.1 °F - 19.9 °F 78% 30.28 in 10.0 mi Calm Calm - N/A   Clear
1:53 AM 27.0 °F 20.5 °F 19.9 °F 75% 30.27 in 10.0 mi SSE 5.8 mph - N/A   Clear
2:53 AM 27.0 °F 18.7 °F 19.9 °F 75% 30.26 in 10.0 mi SSE 8.1 mph - N/A   Clear
3:53 AM 26.1 °F 18.4 °F 19.9 °F 78% 30.25 in 10.0 mi SE 6.9 mph - N/A   Clear
4:53 AM 26.1 °F 19.4 °F 19.9 °F 78% 30.23 in 10.0 mi SE 5.8 mph - N/A   Clear
5:53 AM 26.1 °F 17.6 °F 19.9 °F 78% 30.22 in 10.0 mi SSE 8.1 mph - N/A   Clear
6:53 AM 26.1 °F 18.4 °F 19.9 °F 78% 30.23 in 10.0 mi SSE 6.9 mph - N/A   Clear
7:53 AM 26.1 °F 17.6 °F 19.9 °F 78% 30.22 in 10.0 mi SSE 8.1 mph - N/A   Clear
8:53 AM 28.9 °F 21.9 °F 23.0 °F 78% 30.22 in 10.0 mi SSE 6.9 mph - N/A   Clear
9:53 AM 34.0 °F 27.2 °F 25.0 °F 70% 30.22 in 10.0 mi South 8.1 mph - N/A   Clear
10:53 AM 37.0 °F 29.3 °F 27.0 °F 67% 30.21 in 10.0 mi South 11.5 mph - N/A   Clear
11:53 AM 37.0 °F 28.5 °F 27.0 °F 67% 30.19 in 10.0 mi South 13.8 mph - N/A   Clear
12:53 PM 39.0 °F 34.0 °F 28.0 °F 65% 30.16 in 10.0 mi SSW 6.9 mph - N/A   Clear
1:53 PM 42.1 °F 40.2 °F 28.0 °F 58% 30.13 in 10.0 mi SW 3.5 mph - N/A   Clear
2:53 PM 43.0 °F - 28.0 °F 56% 30.11 in 10.0 mi Calm Calm - N/A   Clear
3:53 PM 42.1 °F - 30.0 °F 62% 30.11 in 10.0 mi Calm Calm - N/A   Clear
4:53 PM 39.0 °F 36.8 °F 28.9 °F 67% 30.10 in 10.0 mi ENE 3.5 mph - N/A   Partly Cloudy
5:53 PM 37.9 °F 33.5 °F 28.9 °F 70% 30.09 in 10.0 mi NE 5.8 mph - N/A   Mostly Cloudy
6:53 PM 36.0 °F 32.1 °F 28.9 °F 76% 30.09 in 10.0 mi ESE 4.6 mph - N/A   Mostly Cloudy
7:53 PM 35.1 °F 29.3 °F 28.0 °F 76% 30.09 in 10.0 mi NNE 6.9 mph - N/A   Scattered Clouds
8:53 PM 35.1 °F 29.3 °F 28.0 °F 76% 30.08 in 9.0 mi NE 6.9 mph - N/A   Overcast
9:53 PM 34.0 °F 29.8 °F 28.0 °F 79% 30.07 in 9.0 mi NE 4.6 mph - N/A   Overcast
10:53 PM 33.1 °F 24.9 °F 28.0 °F 82% 30.04 in 8.0 mi NE 10.4 mph - N/A   Overcast
11:53 PM 33.1 °F 26.1 °F 28.0 °F 82% 30.02 in 8.0 mi East 8.1 mph - N/A   Overcast